Powrót do katalogu

STARLINK-11280

AktywnyŁącznośćVLEO
NORAD 61245·PAYLOAD·🇺🇸 United States

Wystrzelony Sep 25, 2024 z Vandenberg Space Force Base

Loading…

Następne Przeloty (najbliższe 24 godziny)

TLE

ŚwieżeSource: CelesTrak SupGP

Epoka: Sep 14, 2026, 22:17 UTC

1 61245C 24175C   26257.92895833  .00032133  00000+0  26449-3 0  2572
2 61245  53.1571 203.2450 0001182 104.8766 147.9486 15.69711672    17

Śledź STARLINK-11280 w czasie rzeczywistym z AllMySat

Download on the App Store